BEIDOU 18 (C57)

Last updated on Aug. 8, 2020, 5:33 a.m. UTC

1 40748U 15037A   20220.54799617 -.00000097  00000-0  00000-0 0  9990
2 40748  55.9367  14.6261 0003030  43.2346 346.1887  1.86232001 34274
UTC
Height (km)
Latitude
Longitude
Inclination
Orbital Period
UTC large
Height (km)
Speed (km/s)
/
Latitude / Longitude
Inclination (degrees)
Orbital Period (minutes)
Azimuth
Elevation
Range (km)
Doppler Factor
iOS Compass Heading
iOS Angle

Next 30 passes for location: Hong Kong

Rise time Rise Azimuth (degrees) Set time Set Azimuth (degrees) Duration Max altitude (degrees)

No matching passes for this satellites